Time,TemperatureF,DewpointF,PressureIn,WindDirection,WindDirectionDegrees,WindSpeedMPH,WindSpeedGustMPH,Humidity,HourlyPrecipIn,Conditions,Clouds,dailyrainin,SoftwareType,DateUTC
2013-09-28 00:00:00,55.6,49.5,30.39,SSW,198,1.0,1.0,80,0.00,,,0.00,Wunderground v.1.15,2013-09-28 04:00:00,
2013-09-28 00:05:00,55.3,49.2,30.39,WSW,257,1.0,1.0,80,0.00,,,0.00,Wunderground v.1.15,2013-09-28 04:05:00,
2013-09-28 00:10:00,55.6,49.5,30.39,WNW,294,1.0,2.0,80,0.00,,,0.00,Wunderground v.1.15,2013-09-28 04:10:00,
2013-09-28 00:15:00,55.8,49.4,30.39,West,265,1.0,2.0,79,0.00,,,0.00,Wunderground v.1.15,2013-09-28 04:15:00,
2013-09-28 00:20:00,55.6,49.5,30.39,SW,221,1.0,2.0,80,0.00,,,0.00,Wunderground v.1.15,2013-09-28 04:20:00,
2013-09-28 00:30:00,55.0,49.3,30.39,SSW,202,1.0,2.0,81,0.00,,,0.00,Wunderground v.1.15,2013-09-28 04:30:00,
2013-09-28 00:35:00,55.1,49.4,30.39,SSW,204,1.0,2.0,81,0.00,,,0.00,Wunderground v.1.15,2013-09-28 04:35:00,
2013-09-28 00:40:00,55.3,49.6,30.39,NW,312,1.0,1.0,81,0.00,,,0.00,Wunderground v.1.15,2013-09-28 04:40:00,
2013-09-28 00:45:00,55.6,49.5,30.39,SSW,196,1.0,1.0,80,0.00,,,0.00,Wunderground v.1.15,2013-09-28 04:45:00,
2013-09-28 00:50:00,55.8,49.7,30.40,SSW,195,0.0,1.0,80,0.00,,,0.00,Wunderground v.1.15,2013-09-28 04:50:00,
2013-09-28 00:55:00,55.9,49.5,30.40,SSW,195,0.0,1.0,79,0.00,,,0.00,Wunderground v.1.15,2013-09-28 04:55:00,
2013-09-28 01:00:00,55.6,49.5,30.39,SSW,195,1.0,1.0,80,0.00,,,0.00,Wunderground v.1.15,2013-09-28 05:00:00,
2013-09-28 01:05:00,55.4,49.3,30.40,SSW,195,0.0,1.0,80,0.00,,,0.00,Wunderground v.1.15,2013-09-28 05:05:00,
2013-09-28 01:10:00,55.2,49.5,30.39,SSW,196,1.0,1.0,81,0.00,,,0.00,Wunderground v.1.15,2013-09-28 05:10:00,
2013-09-28 01:15:00,54.7,49.3,30.40,SSW,196,1.0,1.0,82,0.00,,,0.00,Wunderground v.1.15,2013-09-28 05:15:00,
2013-09-28 01:20:00,54.3,49.2,30.40,SSW,196,1.0,1.0,83,0.00,,,0.00,Wunderground v.1.15,2013-09-28 05:20:00,
2013-09-28 01:25:00,54.2,49.1,30.40,SSW,196,0.0,1.0,83,0.00,,,0.00,Wunderground v.1.15,2013-09-28 05:25:00,
2013-09-28 01:30:00,54.3,49.2,30.40,SSW,196,1.0,1.0,83,0.00,,,0.00,Wunderground v.1.15,2013-09-28 05:30:00,
2013-09-28 01:35:00,54.1,49.1,30.40,SSW,196,0.0,1.0,83,0.00,,,0.00,Wunderground v.1.15,2013-09-28 05:35:00,
2013-09-28 01:40:00,53.9,49.2,30.40,SSW,196,0.0,0.0,84,0.00,,,0.00,Wunderground v.1.15,2013-09-28 05:40:00,
2013-09-28 01:45:00,53.8,49.1,30.40,SSW,196,0.0,0.0,84,0.00,,,0.00,Wunderground v.1.15,2013-09-28 05:45:00,
2013-09-28 01:50:00,53.7,49.0,30.40,SSW,196,0.0,0.0,84,0.00,,,0.00,Wunderground v.1.15,2013-09-28 05:50:00,
2013-09-28 01:55:00,53.5,49.1,30.40,SSW,196,0.0,0.0,85,0.00,,,0.00,Wunderground v.1.15,2013-09-28 05:55:00,
2013-09-28 02:00:00,53.6,48.9,30.40,SSW,213,0.0,1.0,84,0.00,,,0.00,Wunderground v.1.15,2013-09-28 06:00:00,
2013-09-28 02:05:00,53.7,49.0,30.40,SW,227,1.0,2.0,84,0.00,,,0.00,Wunderground v.1.15,2013-09-28 06:05:00,
2013-09-28 02:10:00,54.0,49.3,30.40,WSW,251,1.0,2.0,84,0.00,,,0.00,Wunderground v.1.15,2013-09-28 06:10:00,
2013-09-28 02:15:00,54.2,49.1,30.40,WSW,250,1.0,2.0,83,0.00,,,0.00,Wunderground v.1.15,2013-09-28 06:15:00,
2013-09-28 02:20:00,54.0,49.0,30.40,SSW,213,1.0,2.0,83,0.00,,,0.00,Wunderground v.1.15,2013-09-28 06:20:00,
2013-09-28 02:25:00,54.3,49.2,30.40,West,263,1.0,2.0,83,0.00,,,0.00,Wunderground v.1.15,2013-09-28 06:25:00,
2013-09-28 02:30:00,54.6,49.2,30.40,East,89,1.0,1.0,82,0.00,,,0.00,Wunderground v.1.15,2013-09-28 06:30:00,
2013-09-28 02:35:00,54.6,49.2,30.40,East,89,0.0,1.0,82,0.00,,,0.00,Wunderground v.1.15,2013-09-28 06:35:00,
2013-09-28 02:45:00,54.6,49.2,30.40,South,191,1.0,2.0,82,0.00,,,0.00,Wunderground v.1.15,2013-09-28 06:45:00,
2013-09-28 02:50:00,54.6,49.2,30.40,South,191,1.0,1.0,82,0.00,,,0.00,Wunderground v.1.15,2013-09-28 06:50:00,
2013-09-28 02:55:00,54.6,49.2,30.40,South,190,0.0,2.0,82,0.00,,,0.00,Wunderground v.1.15,2013-09-28 06:55:00,
2013-09-28 03:00:00,54.4,49.0,30.40,SSW,192,1.0,1.0,82,0.00,,,0.00,Wunderground v.1.15,2013-09-28 07:00:00,
2013-09-28 03:05:00,54.1,49.1,30.40,SSW,192,1.0,1.0,83,0.00,,,0.00,Wunderground v.1.15,2013-09-28 07:05:00,
2013-09-28 03:10:00,54.2,49.1,30.40,WSW,239,1.0,1.0,83,0.00,,,0.00,Wunderground v.1.15,2013-09-28 07:10:00,
2013-09-28 03:20:00,54.3,48.9,30.40,WSW,238,1.0,1.0,82,0.00,,,0.00,Wunderground v.1.15,2013-09-28 07:20:00,
2013-09-28 03:30:00,54.2,48.8,30.40,SSW,203,1.0,2.0,82,0.00,,,0.00,Wunderground v.1.15,2013-09-28 07:30:00,
2013-09-28 03:35:00,54.3,48.9,30.40,WSW,241,1.0,2.0,82,0.00,,,0.00,Wunderground v.1.15,2013-09-28 07:35:00,
2013-09-28 03:40:00,54.4,49.0,30.40,South,185,1.0,2.0,82,0.00,,,0.00,Wunderground v.1.15,2013-09-28 07:40:00,
2013-09-28 03:45:00,54.5,49.1,30.40,WNW,283,1.0,2.0,82,0.00,,,0.00,Wunderground v.1.15,2013-09-28 07:45:00,
2013-09-28 03:50:00,54.4,49.0,30.40,West,261,1.0,1.0,82,0.00,,,0.00,Wunderground v.1.15,2013-09-28 07:50:00,
2013-09-28 04:00:00,54.3,48.9,30.40,SSW,202,1.0,1.0,82,0.00,,,0.00,Wunderground v.1.15,2013-09-28 08:00:00,
2013-09-28 04:05:00,54.2,48.8,30.40,SSW,202,1.0,2.0,82,0.00,,,0.00,Wunderground v.1.15,2013-09-28 08:05:00,
2013-09-28 04:10:00,54.1,48.7,30.40,SSW,202,1.0,1.0,82,0.00,,,0.00,Wunderground v.1.15,2013-09-28 08:10:00,
2013-09-28 04:15:00,54.1,48.7,30.40,West,275,1.0,1.0,82,0.00,,,0.00,Wunderground v.1.15,2013-09-28 08:15:00,
2013-09-28 04:20:00,54.2,48.8,30.41,SW,217,2.0,2.0,82,0.00,,,0.00,Wunderground v.1.15,2013-09-28 08:20:00,
2013-09-28 04:25:00,54.1,48.7,30.41,SW,224,1.0,2.0,82,0.00,,,0.00,Wunderground v.1.15,2013-09-28 08:25:00,
2013-09-28 04:30:00,54.2,48.8,30.41,SW,216,1.0,1.0,82,0.00,,,0.00,Wunderground v.1.15,2013-09-28 08:30:00,
2013-09-28 04:35:00,54.0,48.6,30.41,SSW,202,1.0,1.0,82,0.00,,,0.00,Wunderground v.1.15,2013-09-28 08:35:00,
2013-09-28 04:40:00,53.8,48.4,30.41,SW,233,1.0,1.0,82,0.00,,,0.00,Wunderground v.1.15,2013-09-28 08:40:00,
2013-09-28 04:45:00,53.7,48.7,30.41,SW,217,1.0,1.0,83,0.00,,,0.00,Wunderground v.1.15,2013-09-28 08:45:00,
2013-09-28 04:50:00,53.6,48.2,30.41,West,263,1.0,1.0,82,0.00,,,0.00,Wunderground v.1.15,2013-09-28 08:50:00,
2013-09-28 05:00:00,53.5,48.5,30.41,SW,217,1.0,1.0,83,0.00,,,0.00,Wunderground v.1.15,2013-09-28 09:00:00,
2013-09-28 05:05:00,53.5,48.5,30.41,SSW,197,1.0,2.0,83,0.00,,,0.00,Wunderground v.1.15,2013-09-28 09:05:00,
2013-09-28 05:10:00,53.4,48.4,30.41,SW,223,2.0,2.0,83,0.00,,,0.00,Wunderground v.1.15,2013-09-28 09:10:00,
2013-09-28 05:15:00,53.1,48.1,30.41,South,189,2.0,3.0,83,0.00,,,0.00,Wunderground v.1.15,2013-09-28 09:15:00,
2013-09-28 05:20:00,53.2,48.5,30.41,SSW,196,1.0,1.0,84,0.00,,,0.00,Wunderground v.1.15,2013-09-28 09:20:00,
2013-09-28 05:25:00,53.4,48.4,30.41,SW,214,1.0,2.0,83,0.00,,,0.00,Wunderground v.1.15,2013-09-28 09:25:00,
2013-09-28 05:30:00,53.7,48.3,30.42,WSW,251,1.0,1.0,82,0.00,,,0.00,Wunderground v.1.15,2013-09-28 09:30:00,
2013-09-28 05:35:00,53.7,48.3,30.42,SW,229,1.0,2.0,82,0.00,,,0.00,Wunderground v.1.15,2013-09-28 09:35:00,
2013-09-28 05:40:00,53.6,48.2,30.42,SW,228,1.0,1.0,82,0.00,,,0.00,Wunderground v.1.15,2013-09-28 09:40:00,
2013-09-28 05:50:00,53.5,48.1,30.42,South,173,1.0,2.0,82,0.00,,,0.00,Wunderground v.1.15,2013-09-28 09:50:00,
2013-09-28 06:00:00,53.4,48.0,30.43,SW,215,1.0,1.0,82,0.00,,,0.00,Wunderground v.1.15,2013-09-28 10:00:00,
2013-09-28 06:10:00,53.7,48.3,30.43,SSE,165,1.0,1.0,82,0.00,,,0.00,Wunderground v.1.15,2013-09-28 10:10:00,
2013-09-28 06:15:00,53.8,48.4,30.43,SSW,198,1.0,3.0,82,0.00,,,0.00,Wunderground v.1.15,2013-09-28 10:15:00,
2013-09-28 06:20:00,54.0,48.6,30.43,SSE,151,1.0,1.0,82,0.00,,,0.00,Wunderground v.1.15,2013-09-28 10:20:00,
2013-09-28 06:25:00,53.7,48.3,30.43,SW,225,1.0,3.0,82,0.00,,,0.00,Wunderground v.1.15,2013-09-28 10:25:00,
2013-09-28 06:30:00,53.5,48.5,30.43,SSW,195,1.0,1.0,83,0.00,,,0.00,Wunderground v.1.15,2013-09-28 10:30:00,
2013-09-28 06:40:00,53.5,48.5,30.43,SSW,210,1.0,1.0,83,0.00,,,0.00,Wunderground v.1.15,2013-09-28 10:40:00,
2013-09-28 06:45:00,53.6,48.6,30.43,West,265,1.0,2.0,83,0.00,,,0.00,Wunderground v.1.15,2013-09-28 10:45:00,
2013-09-28 06:50:00,53.5,48.5,30.44,SW,220,1.0,1.0,83,0.00,,,0.00,Wunderground v.1.15,2013-09-28 10:50:00,
2013-09-28 06:55:00,53.3,48.3,30.44,West,277,1.0,2.0,83,0.00,,,0.00,Wunderground v.1.15,2013-09-28 10:55:00,
2013-09-28 07:00:00,53.5,48.5,30.44,West,277,1.0,1.0,83,0.00,,,0.00,Wunderground v.1.15,2013-09-28 11:00:00,
2013-09-28 07:05:00,53.5,48.5,30.44,West,262,0.0,2.0,83,0.00,,,0.00,Wunderground v.1.15,2013-09-28 11:05:00,
2013-09-28 07:10:00,53.1,48.4,30.44,SW,227,1.0,1.0,84,0.00,,,0.00,Wunderground v.1.15,2013-09-28 11:10:00,
2013-09-28 07:20:00,52.8,48.4,30.44,SW,236,1.0,1.0,85,0.00,,,0.00,Wunderground v.1.15,2013-09-28 11:20:00,
2013-09-28 07:25:00,52.6,48.2,30.45,SW,218,1.0,2.0,85,0.00,,,0.00,Wunderground v.1.15,2013-09-28 11:25:00,
2013-09-28 07:30:00,52.8,48.4,30.45,SW,217,1.0,1.0,85,0.00,,,0.00,Wunderground v.1.15,2013-09-28 11:30:00,
2013-09-28 07:35:00,53.1,48.4,30.45,SW,217,1.0,1.0,84,0.00,,,0.00,Wunderground v.1.15,2013-09-28 11:35:00,
2013-09-28 07:40:00,53.6,48.6,30.45,SW,218,1.0,1.0,83,0.00,,,0.00,Wunderground v.1.15,2013-09-28 11:40:00,
2013-09-28 07:45:00,53.9,48.9,30.45,SW,217,1.0,1.0,83,0.00,,,0.00,Wunderground v.1.15,2013-09-28 11:45:00,
2013-09-28 07:50:00,53.8,48.8,30.45,SW,217,0.0,0.0,83,0.00,,,0.00,Wunderground v.1.15,2013-09-28 11:50:00,
2013-09-28 07:55:00,53.7,48.7,30.45,SW,234,1.0,2.0,83,0.00,,,0.00,Wunderground v.1.15,2013-09-28 11:55:00,
2013-09-28 08:00:00,53.8,48.8,30.45,SW,234,1.0,1.0,83,0.00,,,0.00,Wunderground v.1.15,2013-09-28 12:00:00,
2013-09-28 08:05:00,54.0,49.3,30.46,SW,234,0.0,1.0,84,0.00,,,0.00,Wunderground v.1.15,2013-09-28 12:05:00,
2013-09-28 08:10:00,54.1,49.1,30.46,SW,234,0.0,0.0,83,0.00,,,0.00,Wunderground v.1.15,2013-09-28 12:10:00,
2013-09-28 08:15:00,54.6,49.2,30.46,SW,234,0.0,1.0,82,0.00,,,0.00,Wunderground v.1.15,2013-09-28 12:15:00,
2013-09-28 08:25:00,55.4,50.0,30.46,SW,234,1.0,1.0,82,0.00,,,0.00,Wunderground v.1.15,2013-09-28 12:25:00,
2013-09-28 08:30:00,56.0,50.3,30.46,SW,234,0.0,0.0,81,0.00,,,0.00,Wunderground v.1.15,2013-09-28 12:30:00,
2013-09-28 08:40:00,56.3,49.5,30.46,WSW,241,1.0,2.0,78,0.00,,,0.00,Wunderground v.1.15,2013-09-28 12:40:00,
2013-09-28 08:45:00,56.4,49.6,30.46,West,275,1.0,2.0,78,0.00,,,0.00,Wunderground v.1.15,2013-09-28 12:45:00,
2013-09-28 08:50:00,56.5,49.7,30.46,West,275,1.0,1.0,78,0.00,,,0.00,Wunderground v.1.15,2013-09-28 12:50:00,
2013-09-28 08:55:00,57.1,50.3,30.46,West,275,0.0,1.0,78,0.00,,,0.00,Wunderground v.1.15,2013-09-28 12:55:00,
2013-09-28 09:00:00,57.8,50.6,30.47,West,275,0.0,0.0,77,0.00,,,0.00,Wunderground v.1.15,2013-09-28 13:00:00,
2013-09-28 09:05:00,58.2,50.7,30.47,West,275,0.0,1.0,76,0.00,,,0.00,Wunderground v.1.15,2013-09-28 13:05:00,
2013-09-28 09:10:00,58.5,50.6,30.47,West,275,0.0,0.0,75,0.00,,,0.00,Wunderground v.1.15,2013-09-28 13:10:00,
2013-09-28 09:15:00,59.0,50.7,30.47,West,275,0.0,0.0,74,0.00,,,0.00,Wunderground v.1.15,2013-09-28 13:15:00,
2013-09-28 09:20:00,59.9,51.6,30.47,West,275,0.0,0.0,74,0.00,,,0.00,Wunderground v.1.15,2013-09-28 13:20:00,
2013-09-28 09:30:00,61.3,52.6,30.47,SSE,167,0.0,0.0,73,0.00,,,0.00,Wunderground v.1.15,2013-09-28 13:30:00,
2013-09-28 09:35:00,61.7,52.2,30.47,SSE,167,0.0,0.0,71,0.00,,,0.00,Wunderground v.1.15,2013-09-28 13:35:00,
2013-09-28 09:40:00,62.0,53.2,30.47,SSE,161,0.0,1.0,73,0.00,,,0.00,Wunderground v.1.15,2013-09-28 13:40:00,
2013-09-28 09:45:00,62.5,52.6,30.47,ESE,121,1.0,2.0,70,0.00,,,0.00,Wunderground v.1.15,2013-09-28 13:45:00,
2013-09-28 09:50:00,62.6,52.3,30.47,East,92,1.0,1.0,69,0.00,,,0.00,Wunderground v.1.15,2013-09-28 13:50:00,
2013-09-28 10:00:00,62.4,51.3,30.46,East,92,3.0,3.0,67,0.00,,,0.00,Wunderground v.1.15,2013-09-28 14:00:00,
2013-09-28 10:05:00,62.4,51.3,30.47,ENE,78,3.0,3.0,67,0.00,,,0.00,Wunderground v.1.15,2013-09-28 14:05:00,
2013-09-28 10:15:00,62.7,50.8,30.47,East,89,3.0,4.0,65,0.00,,,0.00,Wunderground v.1.15,2013-09-28 14:15:00,
2013-09-28 10:20:00,62.9,51.4,30.46,East,98,3.0,3.0,66,0.00,,,0.00,Wunderground v.1.15,2013-09-28 14:20:00,
2013-09-28 10:25:00,62.9,50.1,30.46,ENE,71,3.0,4.0,63,0.00,,,0.00,Wunderground v.1.15,2013-09-28 14:25:00,
2013-09-28 10:35:00,62.6,50.7,30.46,ENE,77,4.0,4.0,65,0.00,,,0.00,Wunderground v.1.15,2013-09-28 14:35:00,
2013-09-28 10:40:00,62.9,51.0,30.46,ESE,111,4.0,4.0,65,0.00,,,0.00,Wunderground v.1.15,2013-09-28 14:40:00,
2013-09-28 10:45:00,63.1,50.7,30.46,ENE,75,3.0,4.0,64,0.00,,,0.00,Wunderground v.1.15,2013-09-28 14:45:00,
2013-09-28 10:50:00,63.1,51.6,30.46,SSE,163,3.0,3.0,66,0.00,,,0.00,Wunderground v.1.15,2013-09-28 14:50:00,
2013-09-28 10:55:00,63.3,51.3,30.46,ENE,73,3.0,3.0,65,0.00,,,0.00,Wunderground v.1.15,2013-09-28 14:55:00,
2013-09-28 11:00:00,63.3,50.9,30.46,ENE,72,3.0,3.0,64,0.00,,,0.00,Wunderground v.1.15,2013-09-28 15:00:00,
2013-09-28 11:05:00,63.4,51.0,30.46,ESE,113,3.0,4.0,64,0.00,,,0.00,Wunderground v.1.15,2013-09-28 15:05:00,
2013-09-28 11:10:00,63.8,51.4,30.46,East,84,3.0,3.0,64,0.00,,,0.00,Wunderground v.1.15,2013-09-28 15:10:00,
2013-09-28 11:15:00,63.8,50.1,30.46,NE,54,3.0,4.0,61,0.00,,,0.00,Wunderground v.1.15,2013-09-28 15:15:00,
2013-09-28 11:20:00,63.8,51.4,30.46,East,86,3.0,3.0,64,0.00,,,0.00,Wunderground v.1.15,2013-09-28 15:20:00,
2013-09-28 11:25:00,64.2,50.5,30.46,SE,137,3.0,4.0,61,0.00,,,0.00,Wunderground v.1.15,2013-09-28 15:25:00,
2013-09-28 11:30:00,64.4,51.5,30.46,East,84,3.0,4.0,63,0.00,,,0.00,Wunderground v.1.15,2013-09-28 15:30:00,
2013-09-28 11:35:00,64.7,48.6,30.46,NE,51,3.0,4.0,56,0.00,,,0.00,Wunderground v.1.15,2013-09-28 15:35:00,
2013-09-28 11:40:00,64.6,49.5,30.46,East,79,4.0,4.0,58,0.00,,,0.00,Wunderground v.1.15,2013-09-28 15:40:00,
2013-09-28 11:45:00,64.7,49.6,30.45,SE,127,4.0,4.0,58,0.00,,,0.00,Wunderground v.1.15,2013-09-28 15:45:00,
2013-09-28 11:50:00,64.9,49.8,30.46,ESE,104,3.0,3.0,58,0.00,,,0.00,Wunderground v.1.15,2013-09-28 15:50:00,
2013-09-28 12:00:00,65.2,50.0,30.45,East,101,3.0,3.0,58,0.00,,,0.00,Wunderground v.1.15,2013-09-28 16:00:00,
2013-09-28 12:05:00,65.5,48.9,30.45,NE,56,4.0,6.0,55,0.00,,,0.00,Wunderground v.1.15,2013-09-28 16:05:00,
2013-09-28 12:10:00,65.4,48.3,30.45,East,84,4.0,5.0,54,0.00,,,0.00,Wunderground v.1.15,2013-09-28 16:10:00,
2013-09-28 12:15:00,65.4,48.3,30.45,South,170,4.0,5.0,54,0.00,,,0.00,Wunderground v.1.15,2013-09-28 16:15:00,
2013-09-28 12:20:00,65.6,48.5,30.45,ESE,110,4.0,4.0,54,0.00,,,0.00,Wunderground v.1.15,2013-09-28 16:20:00,
2013-09-28 12:30:00,65.9,48.8,30.44,NE,55,4.0,4.0,54,0.00,,,0.00,Wunderground v.1.15,2013-09-28 16:30:00,
2013-09-28 12:35:00,66.1,49.0,30.44,East,87,3.0,4.0,54,0.00,,,0.00,Wunderground v.1.15,2013-09-28 16:35:00,
2013-09-28 12:45:00,66.2,49.6,30.44,SE,125,4.0,6.0,55,0.00,,,0.00,Wunderground v.1.15,2013-09-28 16:45:00,
2013-09-28 12:50:00,66.4,49.2,30.43,ENE,74,4.0,6.0,54,0.00,,,0.00,Wunderground v.1.15,2013-09-28 16:50:00,
2013-09-28 13:00:00,66.6,49.4,30.43,NE,53,4.0,5.0,54,0.00,,,0.00,Wunderground v.1.15,2013-09-28 17:00:00,
2013-09-28 13:05:00,66.5,48.8,30.43,NE,40,5.0,5.0,53,0.00,,,0.00,Wunderground v.1.15,2013-09-28 17:05:00,
2013-09-28 13:10:00,66.4,50.7,30.43,East,79,5.0,5.0,57,0.00,,,0.00,Wunderground v.1.15,2013-09-28 17:10:00,
2013-09-28 13:15:00,66.9,50.2,30.43,SE,130,4.0,5.0,55,0.00,,,0.00,Wunderground v.1.15,2013-09-28 17:15:00,
2013-09-28 13:20:00,67.2,50.5,30.42,East,100,3.0,3.0,55,0.00,,,0.00,Wunderground v.1.15,2013-09-28 17:20:00,
2013-09-28 13:25:00,67.3,50.6,30.42,ENE,77,3.0,3.0,55,0.00,,,0.00,Wunderground v.1.15,2013-09-28 17:25:00,
2013-09-28 13:30:00,67.4,50.2,30.42,ESE,118,4.0,8.0,54,0.00,,,0.00,Wunderground v.1.15,2013-09-28 17:30:00,
2013-09-28 13:35:00,67.2,50.5,30.42,ENE,58,5.0,8.0,55,0.00,,,0.00,Wunderground v.1.15,2013-09-28 17:35:00,
2013-09-28 13:40:00,67.2,50.5,30.42,SE,133,5.0,11.0,55,0.00,,,0.00,Wunderground v.1.15,2013-09-28 17:40:00,
2013-09-28 13:45:00,67.4,50.7,30.42,East,90,5.0,11.0,55,0.00,,,0.00,Wunderground v.1.15,2013-09-28 17:45:00,
2013-09-28 13:50:00,67.8,50.5,30.42,SE,130,4.0,4.0,54,0.00,,,0.00,Wunderground v.1.15,2013-09-28 17:50:00,
2013-09-28 13:55:00,67.7,49.9,30.42,NNE,29,4.0,5.0,53,0.00,,,0.00,Wunderground v.1.15,2013-09-28 17:55:00,
2013-09-28 14:00:00,67.7,50.5,30.42,ESE,119,4.0,4.0,54,0.00,,,0.00,Wunderground v.1.15,2013-09-28 18:00:00,
2013-09-28 14:05:00,68.3,51.0,30.42,ESE,117,3.0,4.0,54,0.00,,,0.00,Wunderground v.1.15,2013-09-28 18:05:00,
2013-09-28 14:10:00,68.4,49.6,30.42,SE,144,2.0,6.0,51,0.00,,,0.00,Wunderground v.1.15,2013-09-28 18:10:00,
2013-09-28 14:15:00,68.3,50.5,30.42,East,84,3.0,6.0,53,0.00,,,0.00,Wunderground v.1.15,2013-09-28 18:15:00,
2013-09-28 14:20:00,68.3,50.0,30.41,ESE,109,3.0,4.0,52,0.00,,,0.00,Wunderground v.1.15,2013-09-28 18:20:00,
2013-09-28 14:25:00,68.3,50.0,30.41,SE,128,4.0,4.0,52,0.00,,,0.00,Wunderground v.1.15,2013-09-28 18:25:00,
2013-09-28 14:30:00,68.4,50.6,30.41,ESE,115,2.0,2.0,53,0.00,,,0.00,Wunderground v.1.15,2013-09-28 18:30:00,
2013-09-28 14:35:00,68.6,49.7,30.41,East,94,2.0,5.0,51,0.00,,,0.00,Wunderground v.1.15,2013-09-28 18:35:00,
2013-09-28 14:45:00,68.5,49.7,30.41,ENE,61,5.0,5.0,51,0.00,,,0.00,Wunderground v.1.15,2013-09-28 18:45:00,
2013-09-28 14:50:00,68.5,49.7,30.41,East,95,4.0,4.0,51,0.00,,,0.00,Wunderground v.1.15,2013-09-28 18:50:00,
2013-09-28 15:00:00,68.8,49.9,30.41,ENE,77,3.0,4.0,51,0.00,,,0.00,Wunderground v.1.15,2013-09-28 19:00:00,
2013-09-28 15:05:00,68.8,48.9,30.41,East,86,4.0,4.0,49,0.00,,,0.00,Wunderground v.1.15,2013-09-28 19:05:00,
2013-09-28 15:15:00,69.1,50.2,30.41,NE,54,3.0,4.0,51,0.00,,,0.00,Wunderground v.1.15,2013-09-28 19:15:00,
2013-09-28 15:20:00,69.0,50.1,30.41,East,83,3.0,3.0,51,0.00,,,0.00,Wunderground v.1.15,2013-09-28 19:20:00,
2013-09-28 15:25:00,69.2,50.3,30.41,NE,40,2.0,3.0,51,0.00,,,0.00,Wunderground v.1.15,2013-09-28 19:25:00,
2013-09-28 15:30:00,69.5,49.5,30.40,ENE,78,2.0,3.0,49,0.00,,,0.00,Wunderground v.1.15,2013-09-28 19:30:00,
2013-09-28 15:35:00,69.3,49.9,30.40,ENE,57,3.0,3.0,50,0.00,,,0.00,Wunderground v.1.15,2013-09-28 19:35:00,
2013-09-28 15:40:00,69.2,49.2,30.40,ENE,70,3.0,3.0,49,0.00,,,0.00,Wunderground v.1.15,2013-09-28 19:40:00,
2013-09-28 15:45:00,69.2,50.3,30.40,East,101,3.0,3.0,51,0.00,,,0.00,Wunderground v.1.15,2013-09-28 19:45:00,
2013-09-28 15:55:00,69.4,50.5,30.40,SE,146,2.0,4.0,51,0.00,,,0.00,Wunderground v.1.15,2013-09-28 19:55:00,
2013-09-28 16:00:00,69.3,49.9,30.40,East,94,2.0,3.0,50,0.00,,,0.00,Wunderground v.1.15,2013-09-28 20:00:00,
2013-09-28 16:05:00,69.4,49.4,30.40,East,82,2.0,3.0,49,0.00,,,0.00,Wunderground v.1.15,2013-09-28 20:05:00,
2013-09-28 16:10:00,69.3,50.9,30.40,SE,132,2.0,4.0,52,0.00,,,0.00,Wunderground v.1.15,2013-09-28 20:10:00,
2013-09-28 16:15:00,69.2,50.3,30.40,SSE,153,3.0,4.0,51,0.00,,,0.00,Wunderground v.1.15,2013-09-28 20:15:00,
2013-09-28 16:20:00,69.5,51.1,30.40,ESE,113,2.0,3.0,52,0.00,,,0.00,Wunderground v.1.15,2013-09-28 20:20:00,
2013-09-28 16:25:00,69.5,50.6,30.40,ESE,118,1.0,3.0,51,0.00,,,0.00,Wunderground v.1.15,2013-09-28 20:25:00,
2013-09-28 16:30:00,69.5,49.5,30.40,East,82,1.0,1.0,49,0.00,,,0.00,Wunderground v.1.15,2013-09-28 20:30:00,
2013-09-28 16:35:00,69.5,50.6,30.40,East,83,1.0,1.0,51,0.00,,,0.00,Wunderground v.1.15,2013-09-28 20:35:00,
2013-09-28 16:45:00,69.4,50.5,30.40,SE,133,1.0,2.0,51,0.00,,,0.00,Wunderground v.1.15,2013-09-28 20:45:00,
2013-09-28 16:55:00,69.7,50.2,30.39,ESE,123,1.0,1.0,50,0.00,,,0.00,Wunderground v.1.15,2013-09-28 20:55:00,
2013-09-28 17:00:00,69.3,50.9,30.39,ENE,74,2.0,2.0,52,0.00,,,0.00,Wunderground v.1.15,2013-09-28 21:00:00,
2013-09-28 17:10:00,68.8,50.5,30.39,SSE,153,1.0,1.0,52,0.00,,,0.00,Wunderground v.1.15,2013-09-28 21:10:00,
2013-09-28 17:15:00,68.6,50.3,30.40,SE,143,1.0,1.0,52,0.00,,,0.00,Wunderground v.1.15,2013-09-28 21:15:00,
2013-09-28 17:20:00,68.4,49.6,30.40,SE,146,2.0,2.0,51,0.00,,,0.00,Wunderground v.1.15,2013-09-28 21:20:00,
2013-09-28 17:25:00,68.2,50.4,30.40,SE,134,2.0,2.0,53,0.00,,,0.00,Wunderground v.1.15,2013-09-28 21:25:00,
2013-09-28 17:35:00,67.8,50.5,30.39,SSE,150,2.0,2.0,54,0.00,,,0.00,Wunderground v.1.15,2013-09-28 21:35:00,
2013-09-28 17:40:00,67.6,50.4,30.39,ESE,112,1.0,1.0,54,0.00,,,0.00,Wunderground v.1.15,2013-09-28 21:40:00,
2013-09-28 17:45:00,67.3,51.1,30.40,SSE,161,1.0,1.0,56,0.00,,,0.00,Wunderground v.1.15,2013-09-28 21:45:00,
2013-09-28 17:50:00,66.7,51.9,30.40,ESE,114,1.0,3.0,59,0.00,,,0.00,Wunderground v.1.15,2013-09-28 21:50:00,
2013-09-28 17:55:00,66.2,51.9,30.39,South,171,1.0,3.0,60,0.00,,,0.00,Wunderground v.1.15,2013-09-28 21:55:00,
2013-09-28 18:00:00,65.8,51.5,30.40,South,188,1.0,1.0,60,0.00,,,0.00,Wunderground v.1.15,2013-09-28 22:00:00,
2013-09-28 18:05:00,65.3,51.5,30.39,SSE,166,1.0,1.0,61,0.00,,,0.00,Wunderground v.1.15,2013-09-28 22:05:00,
2013-09-28 18:10:00,64.8,51.5,30.40,SE,144,1.0,1.0,62,0.00,,,0.00,Wunderground v.1.15,2013-09-28 22:10:00,
2013-09-28 18:20:00,63.6,49.9,30.40,SSE,164,2.0,2.0,61,0.00,,,0.00,Wunderground v.1.15,2013-09-28 22:20:00,
2013-09-28 18:25:00,63.1,50.3,30.40,SSE,148,2.0,2.0,63,0.00,,,0.00,Wunderground v.1.15,2013-09-28 22:25:00,
2013-09-28 18:30:00,62.5,49.7,30.40,SSE,165,2.0,2.0,63,0.00,,,0.00,Wunderground v.1.15,2013-09-28 22:30:00,
2013-09-28 18:35:00,62.1,48.9,30.40,South,177,2.0,2.0,62,0.00,,,0.00,Wunderground v.1.15,2013-09-28 22:35:00,
2013-09-28 18:40:00,61.9,48.7,30.40,South,175,1.0,2.0,62,0.00,,,0.00,Wunderground v.1.15,2013-09-28 22:40:00,
2013-09-28 18:50:00,61.6,47.6,30.40,SSE,165,2.0,2.0,60,0.00,,,0.00,Wunderground v.1.15,2013-09-28 22:50:00,
2013-09-28 18:55:00,61.6,47.6,30.40,South,176,2.0,2.0,60,0.00,,,0.00,Wunderground v.1.15,2013-09-28 22:55:00,
2013-09-28 19:05:00,61.6,47.6,30.39,SSW,192,2.0,2.0,60,0.00,,,0.00,Wunderground v.1.15,2013-09-28 23:05:00,
2013-09-28 19:10:00,61.5,48.4,30.40,South,190,2.0,2.0,62,0.00,,,0.00,Wunderground v.1.15,2013-09-28 23:10:00,
2013-09-28 19:15:00,61.3,49.4,30.40,SW,219,1.0,2.0,65,0.00,,,0.00,Wunderground v.1.15,2013-09-28 23:15:00,
2013-09-28 19:25:00,60.7,50.9,30.40,West,275,2.0,2.0,70,0.00,,,0.00,Wunderground v.1.15,2013-09-28 23:25:00,
2013-09-28 19:35:00,60.4,51.3,30.39,SSW,209,2.0,2.0,72,0.00,,,0.00,Wunderground v.1.15,2013-09-28 23:35:00,
2013-09-28 19:40:00,60.3,51.2,30.39,SE,138,1.0,1.0,72,0.00,,,0.00,Wunderground v.1.15,2013-09-28 23:40:00,
2013-09-28 19:45:00,60.2,51.1,30.39,SSE,160,1.0,1.0,72,0.00,,,0.00,Wunderground v.1.15,2013-09-28 23:45:00,
2013-09-28 19:55:00,59.5,50.5,30.40,South,178,1.0,2.0,72,0.00,,,0.00,Wunderground v.1.15,2013-09-28 23:55:00,
2013-09-28 20:00:00,58.9,50.6,30.40,ESE,117,1.0,1.0,74,0.00,,,0.00,Wunderground v.1.15,2013-09-29 00:00:00,
2013-09-28 20:05:00,58.6,50.7,30.40,NW,306,1.0,2.0,75,0.00,,,0.00,Wunderground v.1.15,2013-09-29 00:05:00,
2013-09-28 20:10:00,58.3,50.8,30.40,SW,227,0.0,2.0,76,0.00,,,0.00,Wunderground v.1.15,2013-09-29 00:10:00,
2013-09-28 20:15:00,58.2,50.7,30.40,SSE,151,1.0,2.0,76,0.00,,,0.00,Wunderground v.1.15,2013-09-29 00:15:00,
2013-09-28 20:20:00,58.4,50.5,30.40,SSW,202,1.0,1.0,75,0.00,,,0.00,Wunderground v.1.15,2013-09-29 00:20:00,
2013-09-28 20:25:00,58.5,50.6,30.40,SW,230,1.0,2.0,75,0.00,,,0.00,Wunderground v.1.15,2013-09-29 00:25:00,
2013-09-28 20:35:00,58.4,50.5,30.40,NW,324,1.0,2.0,75,0.00,,,0.00,Wunderground v.1.15,2013-09-29 00:35:00,
2013-09-28 20:40:00,58.3,50.8,30.40,NNW,338,1.0,1.0,76,0.00,,,0.00,Wunderground v.1.15,2013-09-29 00:40:00,
2013-09-28 20:45:00,58.2,50.3,30.39,WNW,293,1.0,1.0,75,0.00,,,0.00,Wunderground v.1.15,2013-09-29 00:45:00,
2013-09-28 20:50:00,58.0,50.5,30.39,ENE,76,1.0,3.0,76,0.00,,,0.00,Wunderground v.1.15,2013-09-29 00:50:00,
2013-09-28 21:00:00,57.8,50.3,30.40,ENE,73,1.0,3.0,76,0.00,,,0.00,Wunderground v.1.15,2013-09-29 01:00:00,
2013-09-28 21:10:00,58.3,50.4,30.39,East,98,1.0,2.0,75,0.00,,,0.00,Wunderground v.1.15,2013-09-29 01:10:00,
2013-09-28 21:15:00,58.4,50.1,30.39,East,80,1.0,2.0,74,0.00,,,0.00,Wunderground v.1.15,2013-09-29 01:15:00,
2013-09-28 21:20:00,58.6,50.0,30.39,ENE,67,1.0,2.0,73,0.00,,,0.00,Wunderground v.1.15,2013-09-29 01:20:00,
2013-09-28 21:25:00,58.6,50.3,30.39,ENE,66,1.0,2.0,74,0.00,,,0.00,Wunderground v.1.15,2013-09-29 01:25:00,
2013-09-28 21:30:00,58.2,50.3,30.40,ENE,66,1.0,1.0,75,0.00,,,0.00,Wunderground v.1.15,2013-09-29 01:30:00,
2013-09-28 21:35:00,57.6,50.1,30.40,ENE,66,1.0,1.0,76,0.00,,,0.00,Wunderground v.1.15,2013-09-29 01:35:00,
2013-09-28 21:40:00,57.2,50.1,30.40,ENE,66,1.0,2.0,77,0.00,,,0.00,Wunderground v.1.15,2013-09-29 01:40:00,
2013-09-28 21:50:00,56.3,49.9,30.40,East,86,1.0,1.0,79,0.00,,,0.00,Wunderground v.1.15,2013-09-29 01:50:00,
2013-09-28 21:55:00,56.0,49.9,30.40,East,86,1.0,1.0,80,0.00,,,0.00,Wunderground v.1.15,2013-09-29 01:55:00,
2013-09-28 22:00:00,55.8,49.4,30.40,East,86,1.0,1.0,79,0.00,,,0.00,Wunderground v.1.15,2013-09-29 02:00:00,
2013-09-28 22:10:00,56.0,49.2,30.39,SSW,213,1.0,1.0,78,0.00,,,0.00,Wunderground v.1.15,2013-09-29 02:10:00,
2013-09-28 22:15:00,56.4,49.6,30.39,SSW,213,1.0,1.0,78,0.00,,,0.00,Wunderground v.1.15,2013-09-29 02:15:00,
2013-09-28 22:20:00,56.8,49.7,30.39,West,279,1.0,1.0,77,0.00,,,0.00,Wunderground v.1.15,2013-09-29 02:20:00,
2013-09-28 22:25:00,56.9,49.8,30.39,West,273,1.0,4.0,77,0.00,,,0.00,Wunderground v.1.15,2013-09-29 02:25:00,
2013-09-28 22:30:00,57.3,50.5,30.39,West,264,2.0,2.0,78,0.00,,,0.00,Wunderground v.1.15,2013-09-29 02:30:00,
2013-09-28 22:40:00,57.3,50.5,30.39,NW,317,1.0,1.0,78,0.00,,,0.00,Wunderground v.1.15,2013-09-29 02:40:00,
2013-09-28 22:45:00,57.3,50.5,30.39,WNW,292,2.0,2.0,78,0.00,,,0.00,Wunderground v.1.15,2013-09-29 02:45:00,
2013-09-28 22:55:00,57.8,50.6,30.39,West,278,2.0,2.0,77,0.00,,,0.00,Wunderground v.1.15,2013-09-29 02:55:00,
2013-09-28 23:00:00,57.8,50.6,30.40,WSW,258,3.0,3.0,77,0.00,,,0.00,Wunderground v.1.15,2013-09-29 03:00:00,
2013-09-28 23:05:00,57.7,50.5,30.40,WSW,258,1.0,3.0,77,0.00,,,0.00,Wunderground v.1.15,2013-09-29 03:05:00,
2013-09-28 23:15:00,57.1,50.3,30.40,SW,230,1.0,1.0,78,0.00,,,0.00,Wunderground v.1.15,2013-09-29 03:15:00,
2013-09-28 23:20:00,56.6,50.2,30.39,SW,219,1.0,2.0,79,0.00,,,0.00,Wunderground v.1.15,2013-09-29 03:20:00,
2013-09-28 23:25:00,56.4,49.6,30.39,SW,227,1.0,2.0,78,0.00,,,0.00,Wunderground v.1.15,2013-09-29 03:25:00,
2013-09-28 23:35:00,56.6,49.5,30.39,SW,227,1.0,2.0,77,0.00,,,0.00,Wunderground v.1.15,2013-09-29 03:35:00,
2013-09-28 23:45:00,56.8,50.0,30.39,WSW,250,1.0,2.0,78,0.00,,,0.00,Wunderground v.1.15,2013-09-29 03:45:00,
2013-09-28 23:50:00,57.0,50.5,30.38,SW,232,1.0,1.0,79,0.00,,,0.00,Wunderground v.1.15,2013-09-29 03:50:00,
2013-09-28 23:55:00,57.2,50.4,30.38,SW,230,1.0,1.0,78,0.00,,,0.00,Wunderground v.1.15,2013-09-29 03:55:00,